CW8027 Weather Reports


time (UTC)temp
C
wind
direction
speed
KPH
gust
KPH
rain 1hr
cm
rain 24hr
cm
rain mn
cm
humidity
%
barometer
mb
20260508023023 8 348 3.2 6.4 0.00 0.10 0.03 57 1008.0
20260508022033 8 355 3.2 6.4 0.00 0.10 0.03 57 1008.0
20260508021100 8 311 1.6 3.2 0.00 0.10 0.03 56 1007.9
20260508020022 8 309 1.6 4.8 0.00 0.10 0.03 57 1007.9
20260508015031 8 309 3.2 6.4 0.00 0.10 0.03 55 1008.0
20260508014032 8 277 3.2 6.4 0.00 0.10 0.03 55 1007.8
20260508013042 9 279 1.6 3.2 0.00 0.10 0.03 54 1007.8
20260508012024 9 279 3.2 4.8 0.00 0.10 0.03 53 1007.8
20260508011035 9 291 1.6 4.8 0.00 0.10 0.03 53 1007.7
20260508010030 9 288 3.2 4.8 0.00 0.10 0.03 52 1007.7
20260508005040 9 295 1.6 4.8 0.00 0.10 0.03 52 1007.7
20260508004052 9 296 3.2 9.7 0.00 0.10 0.03 51 1007.5
20260508003031 10 273 3.2 11.3 0.00 0.10 0.03 50 1007.4
20260508002033 10 344 4.8 9.7 0.00 0.10 0.03 51 1007.2
20260508001021 10 5 4.8 9.7 0.00 0.10 0.03 50 1007.3
20260508000026 10 344 4.8 8.0 0.00 0.10 0.03 49 1007.2
20260507235051 10 311 4.8 14.5 0.00 0.10 0.03 48 1007.1
20260507234040 10 319 8.0 14.5 0.00 0.10 0.03 48 1007.1
20260507233039 10 251 8.0 14.5 0.00 0.10 0.03 48 1007.1
20260507232032 10 264 6.4 17.7 0.00 0.10 0.03 47 1007.0
20260507231035 10 284 6.4 14.5 0.00 0.10 0.03 47 1007.0
20260507230041 10 242 11.3 19.3 0.00 0.10 0.03 47 1007.1
20260507225040 10 267 12.9 22.5 0.00 0.10 0.03 47 1007.0
20260507224029 10 346 8.0 25.7 0.00 0.10 0.03 46 1006.9
20260507223059 11 269 14.5 25.7 0.00 0.10 0.03 45 1006.8
20260507222041 11 273 14.5 25.7 0.00 0.10 0.03 45 1007.0
20260507221051 11 250 6.4 25.7 0.00 0.10 0.03 46 1007.0
20260507220031 10 269 16.1 25.7 0.00 0.10 0.03 46 1007.1
20260507215101 10 248 19.3 30.6 0.00 0.10 0.03 45 1007.0
20260507214032 10 247 16.1 33.8 0.00 0.10 0.03 44 1007.0
20260507213031 10 275 16.1 27.4 0.00 0.10 0.03 44 1006.8
20260507212036 10 284 19.3 30.6 0.00 0.10 0.03 44 1006.9
20260507211037 10 260 16.1 33.8 0.00 0.10 0.03 46 1006.9
20260507210027 10 273 24.1 37.0 0.00 0.10 0.03 46 1006.9
20260507205029 10 279 19.3 41.8 0.00 0.10 0.03 48 1006.9
20260507204041 10 339 17.7 38.6 0.00 0.10 0.03 48 1006.9
20260507203023 11 259 16.1 35.4 0.00 0.10 0.03 45 1006.7
20260507202049 10 271 25.7 41.8 0.00 0.10 0.03 44 1006.6
20260507201036 11 264 22.5 38.6 0.00 0.10 0.03 44 1006.7
20260507200037 10 268 19.3 30.6 0.00 0.20 0.03 47 1006.7
20260507195043 10 270 17.7 29.0 0.00 0.20 0.03 49 1006.7
20260507194044 10 289 16.1 38.6 0.00 0.20 0.03 48 1006.8
20260507193031 11 236 17.7 45.1 0.00 0.20 0.03 44 1006.7
20260507192041 10 282 22.5 33.8 0.00 0.20 0.03 45 1006.8
20260507191023 10 261 22.5 37.0 0.00 0.20 0.03 46 1006.7
20260507190032 10 292 19.3 38.6 0.00 0.20 0.03 46 1006.7
20260507185032 10 238 24.1 43.5 0.00 0.20 0.03 44 1006.8
20260507184024 10 294 24.1 37.0 0.00 0.20 0.03 46 1006.7
20260507183024 10 318 20.9 40.2 0.00 0.20 0.03 45 1006.6
20260507182034 10 242 20.9 37.0 0.00 0.20 0.03 45 1006.6
20260507181101 10 307 19.3 37.0 0.00 0.20 0.03 44 1006.5
20260507180041 10 265 20.9 45.1 0.00 0.20 0.03 45 1006.7
20260507175051 10 298 24.1 45.1 0.00 0.20 0.03 46 1006.4
20260507174030 10 250 22.5 35.4 0.00 0.20 0.03 45 1006.6
20260507173041 10 295 24.1 35.4 0.00 0.20 0.03 46 1006.4
20260507172051 10 251 22.5 40.2 0.00 0.20 0.03 47 1006.5
20260507171032 10 215 19.3 43.5 0.00 0.20 0.03 47 1006.5
20260507170038 10 272 22.5 45.1 0.00 0.20 0.03 45 1006.5
20260507165038 10 234 22.5 48.3 0.00 0.20 0.03 46 1006.6
20260507164049 10 310 27.4 45.1 0.00 0.20 0.03 45 1006.6
20260507163031 10 218 22.5 48.3 0.00 0.20 0.03 48 1006.7
20260507162041 10 257 22.5 53.1 0.00 0.20 0.03 48 1006.7
20260507161041 9 279 25.7 48.3 0.00 0.20 0.03 48 1006.8
20260507160033 10 245 25.7 43.5 0.00 0.61 0.03 45 1006.8
20260507155048 10 217 17.7 53.1 0.00 0.61 0.03 47 1006.8
20260507154035 9 281 25.7 45.1 0.00 0.61 0.03 50 1006.7
20260507153044 9 244 24.1 41.8 0.00 0.61 0.03 53 1006.7
20260507152044 9 297 14.5 40.2 0.00 0.61 0.03 57 1006.7
20260507151033 8 229 19.3 30.6 0.00 0.61 0.03 57 1006.8
20260507150043 8 268 22.5 38.6 0.00 0.61 0.03 58 1006.7
20260507145039 8 240 19.3 37.0 0.00 1.19 0.03 59 1006.9
20260507144043 8 198 20.9 40.2 0.00 1.19 0.03 59 1006.9
20260507143045 8 238 22.5 40.2 0.00 1.19 0.03 59 1006.9
20260507142034 8 244 17.7 35.4 0.00 1.19 0.03 59 1006.9
20260507141044 8 223 17.7 33.8 0.00 1.19 0.03 60 1006.9
20260507140026 7 245 16.1 32.2 0.00 1.80 0.03 61 1006.9
20260507135027 7 245 19.3 32.2 0.00 1.80 0.03 60 1006.9
20260507134035 7 236 16.1 33.8 0.00 1.80 0.03 61 1006.9
20260507133039 7 239 19.3 32.2 0.00 1.80 0.03 62 1007.0
20260507132040 7 252 20.9 43.5 0.00 1.80 0.03 63 1007.1
20260507131029 6 305 19.3 38.6 0.00 1.80 0.03 63 1007.3
20260507130030 6 175 17.7 30.6 0.00 2.31 0.03 64 1007.2
20260507125059 7 252 11.3 35.4 0.00 2.31 0.03 65 1007.1
20260507124046 6 209 12.9 27.4 0.00 2.31 0.03 66 1007.3
20260507123050 6 288 17.7 35.4 0.00 2.31 0.03 66 1007.2
20260507122029 6 219 17.7 35.4 0.00 2.31 0.03 67 1007.2
20260507121030 6 188 22.5 40.2 0.00 2.31 0.03 66 1007.1
20260507120040 6 223 16.1 41.8 0.00 2.31 0.03 67 1007.2
20260507115049 6 239 14.5 32.2 0.00 2.79 0.03 68 1007.0
20260507114049 6 244 22.5 41.8 0.00 2.79 0.03 69 1007.0
20260507113057 6 198 17.7 37.0 0.00 2.79 0.03 70 1007.0
20260507112044 6 257 12.9 37.0 0.00 2.79 0.03 72 1007.1
20260507111023 6 228 22.5 45.1 0.00 2.79 0.03 71 1007.3
20260507110034 6 246 16.1 35.4 0.00 3.10 0.03 72 1006.9
20260507105033 6 198 19.3 33.8 0.00 3.10 0.03 77 1006.7
20260507104022 6 219 16.1 30.6 0.00 3.10 0.03 82 1006.4
20260507103023 6 229 12.9 27.4 0.10 3.10 0.03 84 1006.3
20260507102036 6 217 14.5 25.7 0.10 3.10 0.03 86 1006.4
20260507051043 6 212 6.4 14.5 0.00 3.10 0.00 86 1007.3
20260507050048 6 194 8.0 11.3 0.00 3.10 0.00 86 1007.4
20260507045025 7 244 4.8 12.9 0.00 3.10 0.00 86 1007.6
20260507044033 7 172 6.4 14.5 0.00 3.10 0.00 86 1007.8
20260507043034 7 218 8.0 17.7 0.00 3.10 0.00 86 1007.8
20260507042045 7 292 9.7 16.1 0.00 3.10 0.00 86 1008.0
20260507041026 7 215 9.7 16.1 0.00 3.10 0.00 86 1008.0
20260507040055 7 250 4.8 19.3 0.00 3.10 0.61 86 1008.1
20260507035045 7 258 8.0 12.9 0.00 3.10 0.61 86 1008.1
20260507034026 7 237 6.4 12.9 0.00 3.10 0.61 86 1008.1
20260507033036 7 223 9.7 16.1 0.00 3.10 0.61 86 1008.3
20260507032036 7 207 6.4 9.7 0.00 3.10 0.61 85 1008.4
20260507031047 7 223 6.4 11.3 0.00 3.10 0.61 85 1008.3
20260507030052 7 213 3.2 12.9 0.00 3.10 0.61 84 1008.4
20260507025035 7 244 8.0 12.9 0.00 3.10 0.61 84 1008.3
20260507024044 7 251 9.7 14.5 0.00 3.10 0.61 84 1008.4